| time (UTC) | temp C | wind direction | speed KPH | gust KPH | rain 1hr cm | rain 24hr cm | rain mn cm | humidity % | barometer mb |
| 20260508082804 | 7 | 1 | 1.6 | 4.8 | 0.00 | 0.03 | 0.00 | 90 | 1009.2 |
| 20260508075803 | 7 | 315 | 4.8 | 8.0 | 0.00 | 0.03 | 0.00 | 90 | 1009.2 |
| 20260508074804 | 7 | 152 | 1.6 | 3.2 | 0.00 | 0.03 | 0.00 | 90 | 1009.2 |
| 20260508074304 | 7 | 152 | 1.6 | 3.2 | 0.00 | 0.03 | 0.00 | 90 | 1009.2 |
| 20260508072804 | 7 | 152 | 0.0 | 3.2 | 0.00 | 0.03 | 0.00 | 89 | 1009.2 |
| 20260508071304 | 8 | 152 | 0.0 | 3.2 | 0.00 | 0.03 | 0.00 | 86 | 1009.2 |
| 20260508070804 | 8 | 152 | 0.0 | 3.2 | 0.00 | 0.03 | 0.00 | 86 | 1009.2 |
| 20260508065306 | 8 | 152 | 4.8 | 4.8 | 0.00 | 0.03 | 0.00 | 85 | 1009.2 |
| 20260508064804 | 9 | 33 | 1.6 | 4.8 | 0.00 | 0.03 | 0.00 | 84 | 1009.2 |
| 20260508064304 | 9 | 33 | 0.0 | 3.2 | 0.00 | 0.03 | 0.00 | 83 | 1009.2 |
| 20260508063304 | 10 | 33 | 0.0 | 3.2 | 0.00 | 0.03 | 0.00 | 80 | 1009.2 |
| 20260508062803 | 10 | 31 | 3.2 | 8.0 | 0.00 | 0.03 | 0.00 | 79 | 1009.2 |
| 20260508062306 | 10 | 56 | 6.4 | 9.7 | 0.00 | 0.03 | 0.00 | 80 | 1009.2 |
| 20260508055306 | 12 | 306 | 9.7 | 20.9 | 0.00 | 0.00 | 0.00 | 64 | 1009.2 |
| 20260508053304 | 12 | 55 | 3.2 | 9.7 | 0.00 | 0.00 | 0.00 | 61 | 1009.2 |
| 20260508050804 | 12 | 53 | 3.2 | 9.7 | 0.00 | 0.00 | 0.00 | 59 | 1009.2 |
| 20260508044804 | 12 | 98 | 6.4 | 11.3 | 0.00 | 0.00 | 0.00 | 57 | 1009.2 |
| 20260508044304 | 13 | 84 | 6.4 | 14.5 | 0.00 | 0.00 | 0.00 | 58 | 1009.2 |
| 20260508043304 | 12 | 61 | 4.8 | 8.0 | 0.00 | 0.00 | 0.00 | 59 | 1009.2 |
| 20260508041304 | 13 | 1 | 6.4 | 9.7 | 0.00 | 0.00 | 0.00 | 57 | 1009.2 |
| 20260508034804 | 13 | 34 | 6.4 | 12.9 | 0.00 | 0.00 | 0.00 | 56 | 1009.2 |
| 20260508032306 | 15 | 50 | 9.7 | 22.5 | 0.00 | 0.00 | 0.00 | 46 | 1011.3 |
| 20260508030804 | 15 | 14 | 4.8 | 11.3 | 0.00 | 0.00 | 0.00 | 42 | 1011.3 |
| 20260508024804 | 16 | 134 | 1.6 | 3.2 | 0.00 | 0.00 | 0.00 | 40 | 1011.3 |
| 20260508023304 | 16 | 180 | 1.6 | 8.0 | 0.00 | 0.00 | 0.00 | 39 | 1011.3 |
| 20260508021804 | 16 | 144 | 1.6 | 3.2 | 0.00 | 0.00 | 0.00 | 38 | 1011.3 |
| 20260508021304 | 16 | 150 | 1.6 | 3.2 | 0.00 | 0.00 | 0.00 | 38 | 1011.3 |
| 20260508014304 | 16 | 257 | 6.4 | 11.3 | 0.00 | 0.00 | 0.00 | 40 | 1011.3 |
| 20260508013804 | 17 | 324 | 1.6 | 3.2 | 0.00 | 0.00 | 0.00 | 39 | 1011.3 |
| 20260508012804 | 17 | 35 | 6.4 | 19.3 | 0.00 | 0.00 | 0.00 | 38 | 1011.3 |
| 20260508012307 | 17 | 26 | 4.8 | 14.5 | 0.00 | 0.00 | 0.00 | 37 | 1011.3 |
| 20260508011804 | 17 | 5 | 8.0 | 20.9 | 0.00 | 0.00 | 0.00 | 35 | 1011.3 |
| 20260508010804 | 18 | 30 | 11.3 | 19.3 | 0.00 | 0.00 | 0.00 | 29 | 1011.3 |
| 20260508010304 | 18 | 33 | 11.3 | 20.9 | 0.00 | 0.00 | 0.00 | 28 | 1011.3 |
| 20260508005804 | 18 | 2 | 8.0 | 19.3 | 0.00 | 0.00 | 0.00 | 27 | 1011.3 |
| 20260508005306 | 19 | 14 | 8.0 | 20.9 | 0.00 | 0.00 | 0.00 | 28 | 1011.3 |
| 20260508002804 | 20 | 179 | 0.0 | 3.2 | 0.00 | 0.00 | 0.00 | 24 | 1011.3 |
| 20260507234304 | 21 | 51 | 6.4 | 9.7 | 0.00 | 0.00 | 0.00 | 24 | 1011.3 |
| 20260507232803 | 21 | 295 | 11.3 | 20.9 | 0.00 | 0.00 | 0.00 | 23 | 1011.3 |
| 20260507231304 | 22 | 287 | 6.4 | 12.9 | 0.00 | 0.00 | 0.00 | 22 | 1011.3 |
| 20260507230804 | 21 | 325 | 8.0 | 14.5 | 0.00 | 0.00 | 0.00 | 25 | 1011.3 |
| 20260507225306 | 21 | 263 | 14.5 | 24.1 | 0.00 | 0.00 | 0.00 | 22 | 1011.3 |
| 20260507224804 | 21 | 307 | 14.5 | 22.5 | 0.00 | 0.00 | 0.00 | 23 | 1011.3 |
| 20260507223804 | 22 | 308 | 11.3 | 22.5 | 0.00 | 0.00 | 0.00 | 25 | 1011.3 |
| 20260507223304 | 22 | 277 | 11.3 | 24.1 | 0.00 | 0.00 | 0.00 | 25 | 1011.3 |
| 20260507222306 | 21 | 265 | 11.3 | 20.9 | 0.00 | 0.00 | 0.00 | 24 | 1011.3 |
| 20260507221303 | 21 | 277 | 11.3 | 24.1 | 0.00 | 0.00 | 0.00 | 26 | 1011.3 |
| 20260507220803 | 21 | 247 | 17.7 | 32.2 | 0.00 | 0.00 | 0.00 | 24 | 1011.3 |
| 20260507215803 | 21 | 271 | 19.3 | 33.8 | 0.00 | 0.00 | 0.00 | 23 | 1011.3 |
| 20260507214803 | 21 | 262 | 14.5 | 29.0 | 0.00 | 0.00 | 0.00 | 24 | 1011.3 |
| 20260507214304 | 22 | 278 | 19.3 | 33.8 | 0.00 | 0.00 | 0.00 | 24 | 1011.3 |
| 20260507213804 | 22 | 285 | 14.5 | 29.0 | 0.00 | 0.00 | 0.00 | 23 | 1011.3 |
| 20260507212804 | 22 | 276 | 11.3 | 27.4 | 0.00 | 0.00 | 0.00 | 24 | 1011.3 |
| 20260507212307 | 22 | 297 | 16.1 | 29.0 | 0.00 | 0.00 | 0.00 | 25 | 1011.3 |
| 20260507205804 | 21 | 287 | 14.5 | 32.2 | 0.00 | 0.00 | 0.00 | 24 | 1011.3 |
| 20260507205306 | 20 | 242 | 17.7 | 32.2 | 0.00 | 0.00 | 0.00 | 25 | 1011.3 |
| 20260507204804 | 20 | 242 | 12.9 | 32.2 | 0.00 | 0.00 | 0.00 | 25 | 1011.3 |
| 20260507204304 | 21 | 248 | 14.5 | 24.1 | 0.00 | 0.00 | 0.00 | 26 | 1011.3 |
| 20260507202306 | 21 | 301 | 4.8 | 20.9 | 0.00 | 0.00 | 0.00 | 26 | 1011.3 |
| 20260507201304 | 21 | 230 | 11.3 | 19.3 | 0.00 | 0.00 | 0.00 | 27 | 1011.3 |
| 20260507200303 | 20 | 188 | 3.2 | 29.0 | 0.00 | 0.00 | 0.00 | 27 | 1011.3 |
| 20260507195803 | 20 | 294 | 14.5 | 20.9 | 0.00 | 0.00 | 0.00 | 26 | 1011.3 |
| 20260507194803 | 21 | 214 | 12.9 | 24.1 | 0.00 | 0.00 | 0.00 | 26 | 1011.3 |
| 20260507194303 | 20 | 257 | 14.5 | 24.1 | 0.00 | 0.00 | 0.00 | 26 | 1011.3 |
| 20260507193304 | 20 | 276 | 19.3 | 33.8 | 0.00 | 0.00 | 0.00 | 27 | 1011.3 |
| 20260507192803 | 20 | 252 | 17.7 | 32.2 | 0.00 | 0.00 | 0.00 | 27 | 1011.3 |
| 20260507191804 | 20 | 277 | 11.3 | 25.7 | 0.00 | 0.00 | 0.00 | 28 | 1011.3 |
| 20260507190803 | 20 | 271 | 9.7 | 32.2 | 0.00 | 0.00 | 0.00 | 29 | 1011.3 |
| 20260507185804 | 19 | 300 | 11.3 | 22.5 | 0.00 | 0.00 | 0.00 | 31 | 1011.3 |
| 20260507184804 | 18 | 247 | 11.3 | 20.9 | 0.00 | 0.00 | 0.00 | 32 | 1011.3 |
| 20260507183804 | 17 | 249 | 9.7 | 29.0 | 0.00 | 0.00 | 0.00 | 33 | 1011.3 |
| 20260507182804 | 17 | 302 | 9.7 | 25.7 | 0.00 | 0.00 | 0.00 | 34 | 1011.3 |
| 20260507182306 | 17 | 297 | 12.9 | 22.5 | 0.00 | 0.00 | 0.00 | 33 | 1011.3 |
| 20260507181804 | 17 | 256 | 11.3 | 25.7 | 0.00 | 0.00 | 0.00 | 34 | 1011.3 |
| 20260507180804 | 17 | 255 | 14.5 | 24.1 | 0.00 | 0.00 | 0.00 | 32 | 1011.3 |
| 20260507180304 | 17 | 264 | 16.1 | 27.4 | 0.00 | 0.00 | 0.00 | 33 | 1011.3 |
| 20260507175306 | 17 | 246 | 14.5 | 25.7 | 0.00 | 0.00 | 0.00 | 32 | 1011.3 |
| 20260507174304 | 17 | 247 | 11.3 | 24.1 | 0.00 | 0.03 | 0.00 | 34 | 1011.3 |
| 20260507173804 | 16 | 214 | 8.0 | 19.3 | 0.00 | 0.03 | 0.00 | 36 | 1011.3 |
| 20260507172307 | 16 | 164 | 4.8 | 11.3 | 0.00 | 0.03 | 0.00 | 36 | 1011.3 |
| 20260507171804 | 17 | 194 | 4.8 | 12.9 | 0.00 | 0.03 | 0.00 | 36 | 1011.3 |
| 20260507171303 | 16 | 239 | 4.8 | 11.3 | 0.00 | 0.03 | 0.00 | 35 | 1011.3 |
| 20260507165803 | 16 | 199 | 6.4 | 11.3 | 0.00 | 0.05 | 0.00 | 36 | 1011.3 |
| 20260507164804 | 16 | 224 | 6.4 | 19.3 | 0.00 | 0.05 | 0.00 | 36 | 1011.3 |
| 20260507163304 | 16 | 261 | 11.3 | 24.1 | 0.00 | 0.08 | 0.00 | 35 | 1011.3 |
| 20260507161304 | 16 | 222 | 8.0 | 19.3 | 0.00 | 0.08 | 0.00 | 40 | 1011.3 |
| 20260507160804 | 16 | 187 | 9.7 | 20.9 | 0.00 | 0.10 | 0.00 | 41 | 1011.3 |
| 20260507160304 | 15 | 214 | 8.0 | 19.3 | 0.00 | 0.10 | 0.00 | 42 | 1011.3 |
| 20260507155804 | 15 | 199 | 8.0 | 14.5 | 0.00 | 0.10 | 0.00 | 45 | 1011.3 |
| 20260507155306 | 14 | 202 | 6.4 | 14.5 | 0.00 | 0.10 | 0.00 | 44 | 1011.3 |
| 20260507153303 | 12 | 184 | 9.7 | 16.1 | 0.00 | 0.13 | 0.00 | 45 | 1011.3 |
| 20260507151804 | 11 | 194 | 4.8 | 8.0 | 0.00 | 0.15 | 0.00 | 47 | 1011.3 |
| 20260507145306 | 10 | 190 | 8.0 | 12.9 | 0.00 | 0.18 | 0.00 | 50 | 1011.3 |
| 20260507143804 | 9 | 184 | 9.7 | 16.1 | 0.00 | 0.18 | 0.00 | 54 | 1011.3 |
| 20260507143305 | 9 | 186 | 9.7 | 19.3 | 0.00 | 0.18 | 0.00 | 54 | 1011.3 |
| 20260507142306 | 8 | 179 | 9.7 | 14.5 | 0.00 | 0.18 | 0.00 | 56 | 1011.3 |
| 20260507141305 | 8 | 154 | 4.8 | 9.7 | 0.00 | 0.18 | 0.00 | 56 | 1011.3 |
| 20260507140805 | 8 | 178 | 8.0 | 11.3 | 0.00 | 0.18 | 0.00 | 56 | 1011.3 |
| 20260507140305 | 7 | 183 | 8.0 | 9.7 | 0.00 | 0.18 | 0.00 | 58 | 1011.3 |
| 20260507135306 | 7 | 184 | 6.4 | 12.9 | 0.00 | 0.18 | 0.00 | 60 | 1011.3 |
| 20260507134804 | 6 | 169 | 9.7 | 12.9 | 0.00 | 0.18 | 0.00 | 60 | 1011.3 |
| 20260507134305 | 6 | 264 | 8.0 | 11.3 | 0.00 | 0.18 | 0.00 | 61 | 1011.3 |
| 20260507131305 | 5 | 185 | 4.8 | 11.3 | 0.00 | 0.18 | 0.00 | 66 | 1011.3 |
| 20260507130805 | 4 | 195 | 4.8 | 12.9 | 0.00 | 0.18 | 0.00 | 66 | 1011.3 |
| 20260507125805 | 3 | 189 | 3.2 | 9.7 | 0.00 | 0.18 | 0.00 | 68 | 1011.3 |
| 20260507125306 | 3 | 190 | 4.8 | 8.0 | 0.00 | 0.18 | 0.00 | 68 | 1011.3 |
| 20260507124805 | 3 | 197 | 4.8 | 9.7 | 0.00 | 0.18 | 0.00 | 68 | 1011.3 |
| 20260507122805 | 2 | 200 | 3.2 | 4.8 | 0.00 | 0.18 | 0.00 | 70 | 1011.3 |
| 20260507121305 | 2 | 185 | 8.0 | 11.3 | 0.00 | 0.18 | 0.00 | 70 | 1011.3 |
| 20260507120804 | 2 | 197 | 3.2 | 11.3 | 0.00 | 0.18 | 0.00 | 70 | 1011.3 |
| 20260507114806 | 2 | 180 | 4.8 | 9.7 | 0.00 | 0.18 | 0.00 | 69 | 1011.3 |
| 20260507114305 | 2 | 182 | 4.8 | 9.7 | 0.00 | 0.18 | 0.00 | 69 | 1011.3 |
| 20260507113304 | 2 | 198 | 8.0 | 14.5 | 0.00 | 0.18 | 0.00 | 68 | 1011.3 |
| 20260507112805 | 2 | 201 | 8.0 | 12.9 | 0.00 | 0.18 | 0.00 | 68 | 1011.3 |
| 20260507112307 | 2 | 192 | 8.0 | 14.5 | 0.00 | 0.18 | 0.00 | 68 | 1011.3 |
| 20260507105805 | 2 | 192 | 11.3 | 22.5 | 0.00 | 0.18 | 0.00 | 69 | 1011.3 |
| 20260507104805 | 2 | 190 | 8.0 | 11.3 | 0.00 | 0.18 | 0.00 | 70 | 1011.3 |
| 20260507104304 | 2 | 202 | 4.8 | 11.3 | 0.00 | 0.18 | 0.00 | 71 | 1011.3 |
| 20260507102306 | 2 | 181 | 8.0 | 12.9 | 0.00 | 0.18 | 0.00 | 69 | 1011.3 |
| 20260507101805 | 2 | 188 | 9.7 | 16.1 | 0.00 | 0.18 | 0.00 | 68 | 1011.3 |
| 20260507095805 | 3 | 185 | 11.3 | 19.3 | 0.00 | 0.18 | 0.00 | 68 | 1011.3 |
| 20260507094805 | 2 | 200 | 8.0 | 16.1 | 0.00 | 0.18 | 0.00 | 68 | 1011.3 |
| 20260507094305 | 2 | 172 | 9.7 | 16.1 | 0.00 | 0.18 | 0.00 | 70 | 1011.3 |
| 20260507092307 | 2 | 217 | 6.4 | 11.3 | 0.00 | 0.18 | 0.00 | 71 | 1011.3 |
| 20260507091805 | 2 | 211 | 8.0 | 12.9 | 0.00 | 0.18 | 0.00 | 71 | 1011.3 |
| 20260507090805 | 2 | 181 | 9.7 | 16.1 | 0.00 | 0.18 | 0.00 | 72 | 1011.3 |
| 20260507085805 | 2 | 188 | 9.7 | 19.3 | 0.00 | 0.18 | 0.00 | 73 | 1011.3 |
| 20260507085306 | 2 | 187 | 9.7 | 16.1 | 0.00 | 0.18 | 0.00 | 74 | 1011.3 |
| 20260507084805 | 2 | 197 | 8.0 | 16.1 | 0.00 | 0.20 | 0.00 | 75 | 1011.3 |
| 20260507083305 | 1 | 186 | 9.7 | 16.1 | 0.00 | 0.20 | 0.00 | 77 | 1011.3 |